Regional Weather Roundup
Issued by NWS Sterling, VA

Home | Current Version | Previous Version | Graphics & Text | Print | Product List | Glossary On
Versions: 1 2 3 4 5 6 7 8 9 10 11 12 13 14 15 16 17 18 19 20 21 22 23 24 25 26 27 28 29 30 31 32 33 34 35 36 37 38 39 40 41 42 43 44 45 46 47
000
ASUS41 KLWX 271410
RWRLWX

REGIONAL WEATHER ROUNDUP
NATIONAL WEATHER SERVICE BALTIMORE MD/WASHINGTON DC
900 AM EST FRI FEB 27 2015

Note: "FAIR" indicates few or no clouds below 12,000 feet
with no significant weather and/or obstructions to visibility.
 TC=TEMPERATURE CELSIUS

 * =Non NWS site. Station does not report precipitation (e.g. rain,
    snow, etc.), thunder, or fog.

DCZ001-MDZ009-015-VAZ040>042-051-053>054-271500-
WASHINGTON METRO

CITY           SKY/WX    TMP DP  RH WIND       PRES   REMARKS
WASHINGTON NAT PTSUNNY   32  13  45 NW12      30.40R WCI  23
DULLES         PTSUNNY   25   9  50 N13       30.39R WCI  14
ANDREWS AFB    PTSUNNY   29  14  52 NW13      30.37R WCI  19
FT BELVOIR     MOSUNNY   29  13  51 N9G17     30.40R WCI  21
QUANTICO       CLOUDY    30  18  60 N13G24    30.41R WCI  20
COLLEGE PARK*  CLOUDY    30  14  51 NW6       30.39R
LEESBURG*      MOSUNNY   27  12  54 N13       30.40R WCI  16
MANASSAS*      CLOUDY    28  18  64 N15       30.40R WCI  17
GAITHERSBURG*  MOSUNNY   25  10  54 NW8       30.41R WCI  16

$$

MDZ006>007-011-014-271500-
BALTIMORE METRO

CITY           SKY/WX    TMP DP  RH WIND       PRES   REMARKS
BWI AIRPORT    FLURRIES  29  18  63 N7        30.38R
MD SCIENCE CTR   N/A     28  19  69 MISG      30.39R
MARTIN STATE   PTSUNNY   28  21  74 N5        30.41R
ANNAPOLIS      CLOUDY    30  23  75 N7        30.39R HAZE
FORT MEADE*    CLOUDY    30  21  69 NW6       30.41R

$$

MDZ012-015-019>023-271500-
MARYLAND EASTERN SHORE

CITY           SKY/WX    TMP DP  RH WIND       PRES   REMARKS
OCEAN CITY     SUNNY     29  24  82 N7        30.37R
SALISBURY      CLOUDY    32  22  66 N6        30.36R
BAY BRIDGE AP* LGT SNOW  30  27  86 N8        30.39R WCI  23
CAMBRIDGE*     CLOUDY    32  25  74 N3        30.38R
EASTON*        CLOUDY    32  27  80 CALM      30.41R HAZE

$$

MDZ017>025-271500-
SOUTHERN MARYLAND

CITY           SKY/WX    TMP DP  RH WIND       PRES   REMARKS
PATUXENT RIVER LGT SNOW  29  23  78 N8        30.38R WCI  21
ST INIGOES     LGT SNOW  30  23  75 N6        30.37R
LEONARDTOWN*   CLOUDY    30  27  86 CALM      30.39R

$$

MDZ003>005-271500-
NORTH CENTRAL MARYLAND

CITY           SKY/WX    TMP DP  RH WIND       PRES   REMARKS
FREDERICK*     PTSUNNY   25  14  63 NE8       30.43R WCI  16
HAGERSTOWN APT SUNNY     21   7  54 NW15      30.39R WCI   8
WESTMINSTER*   FLURRIES  19  12  73 N10       30.36R WCI   8

$$

MDZ501>502-271500-
WESTERN MARYLAND

CITY           SKY/WX    TMP DP  RH WIND       PRES   REMARKS
OAKLAND*       FOG        5   5 100 W5        30.22R VSB 1
CUMBERLAND*    SUNNY     19   5  53 N3        30.46R

$$

VAZ025>031-271500-
SHENANDOAH VALLEY

CITY           SKY/WX    TMP DP  RH WIND       PRES   REMARKS
WINCHESTER*    SUNNY     23   3  42 NW10      30.39R WCI  12
FRONT ROYAL*   FAIR      23   9  54 NW7       30.37R
LURAY*         FAIR      28  18  64 N7        30.36R
NEW MARKET*    FAIR      23  11  61 NE5       30.35R
STAUNTON*      SUNNY     28  17  64 CALM      30.35R
WAYNESBORO*    PTSUNNY   26  15  61 CALM      30.31R

$$

WVZ021-048>050-054>055-271500-
EASTERN WEST VIRGINIA PANHANDLE

CITY           SKY/WX    TMP DP  RH WIND       PRES   REMARKS
MARTINSBURG    SUNNY     23   6  48 NW10      30.40R WCI  12
PETERSBURG*    NOT AVBL

$$

VAZ036>039-050-271500-
CENTRAL FOOTHILLS

CITY           SKY/WX    TMP DP  RH WIND       PRES   REMARKS
CHARLOTTESVILL SUNNY     30  21  69 NE3       30.34R
CULPEPER*      MOSUNNY   27  14  59 NE6       30.38S
ORANGE*        CLOUDY    30  23  74 N8        30.37R WCI  23
GORDONSVILLE*  FAIR      29  19  64 NE8       30.35R WCI  21
WARRENTON*     PTSUNNY   28  19  67 N10       30.38R WCI  19

$$

VAZ055>057-271500-
NORTH AND CENTRAL PIEDMONT

CITY           SKY/WX    TMP DP  RH WIND       PRES   REMARKS
FREDERICKSBRG* CLOUDY    32  24  71 N10G16    30.38R WCI  24
STAFFORD*      CLOUDY    28  19  66 N13G18    30.43R WCI  18

$$

NCZ024-NYZ072-PAZ021-071-VAZ022-071-271500-
OTHER REGIONAL OBSERVATIONS

CITY           SKY/WX    TMP DP  RH WIND       PRES   REMARKS
NEW YORK CITY  SUNNY     19   4  51 MISG      30.39R
PHILADELPHIA   PTSUNNY   23  15  71 N8        30.41R WCI  14
PITTSBURGH     MOSUNNY    5   0  79 NW7       30.45R
ROANOKE        PTSUNNY   27  13  55 W10       30.37R WCI  17
RICHMOND       CLOUDY    34  27  75 N9        30.35R HAZE    WCI  26
RALEIGH        MOSUNNY   31  29  92 CALM      30.35R

$$

ANZ530>537-271500-
MARINE OBSERVATIONS

STATION/POSITION TIME  TEMP    WIND        PRES
                       AIR SEA DIR/SP/G
                 (UTC) (F)     (DEG/KT/KT) (MB)
THOMAS PT LIGHT  1400   28 31   10/ 10/ 10 1029.9R
BALT KEY BRIDGE  1300   28     360/  9/ 11 1027.9R
COVE POINT       1300   29     360/  5/  6 1027.5R
LEWISETTA        1300   28 32              1027.3R
SOLOMONS ISLAND  1306      32                N/A

$$




USA.gov is the U.S. government's official web portal to all federal, state and local government web resources and services.